Terminal Aerodrome Forecast
Issued by NWS Wilmington, OH

Current Version | Previous Version | Graphics & Text | Print | Product List | Glossary On
Versions: 1 2 3 4 5 6 7 8 9 10 11 12 13 14 15 16 17 18 19 20 21 22 23 24 25 26 27 28
000
FTUS41 KILN 300258 AAC
TAFCMH
TAF AMD
KCMH 300258Z 3003/3024 02007KT P6SM OVC020
     FM300600 04008KT P6SM SCT020 BKN200
     FM301400 08009KT P6SM BKN050 OVC100
     FM301800 11009G17KT 4SM -SHRA BR OVC025=

USA.gov is the U.S. government's official web portal to all federal, state and local government web resources and services.